Showing default

OPS 2222, 3334

Orbit data source: Space-Track

OPS 2222, 3334 is an American payload satellite in GEO that was launched on Tue, 06 Aug 1968 UTC via an ATLAS SLV-3A AGENA D launch vehicle from the Air Force Eastern Test Range (AFETR). Payload-class satellites include a variety of spacecraft equipped with specific instruments for various scientific and technological missions. These include communications satellites like Starlink; space stations such as the ISS; scientific satellites like the Hubble; Earth observation satellites from companies like Planet Labs, Umbra, and HawkEye 360; GPS; miniature CubeSats for education and research; and military/defense satellites.

Not visible in the next 10 days
Identifier
3334, 1968-063A
Orbit
GEO
Country
Flag of USUS
Related business
Manufacturer
LMSC?
Mission
Non-operational spacecraft
Bus & Motor
CANYON, Unknown motor
Mass
~240 kg wet, ~200 kg dry
Launch date (UTC)
1968-08-06 (57 years ago)
Launch vehicle
ATLAS SLV-3A AGENA D
Launch site
Air Force Eastern Test Range (AFETR)
Object type
Payload
Rocket body
Debris
Shape & HBR
Unknown
Radar Cross Section
RCS unknown

Expand to show TLE details & history
Last TLE update: 10 hours ago

TLE from 10 hours ago
0 OPS 2222
1  3334U 68063A   25354.58546170 -.00000095  00000-0  00000+0 0  9995
2  3334   6.3763 284.2129 0902200 226.9034 327.2153  0.99256778 24357
Epoch: 2025-12-20T14:03Z
TLE epoch observation values (Epoch: 2025-12-20T14:03:03.890Z)
Latitude
-0.86428°
Longitude
171.97225°
Altitude
32,968.858 km
Speed
3.297 km/s
True Right ascension
07h 28m 35s
True Declination
0° 51' 48"
Sunlit
Object was in daylight at epoch
Visualization orbit readout
Latitude
Unknown
Longitude
Unknown
Altitude
Unknown
Speed
Unknown
Apparent Right ascension
Unknown
Apparent Declination
Unknown
Sunlit
N/A
Visualization observer readout
Local Sidereal Time
23:16:17
Azimuth
Unknown
Elevation
Unknown
Doppler factor
Unknown
Orbital elements
Apogee altitude
39,904.705 km
Perigee altitude
32,244.53 km
Semi-major axis
42,452.754 km
Eccentricity
0.09022
Inclination
6.3763°
RAAN
284.2129°
Arg. of periapsis
226.9034°
True anomaly
321.04569°
Mean anomaly
327.2153°
Eccentric anomaly
324.19085°
Mean motion
0.24813 °/min
Orbital period
1,450.84 mins
BSTAR
0
Loading maneuver chart data...
Computing Atmospheric mass density...
Loading historical data...
Loading historical data...
Loading historical data...
Loading historical data...
Loading historical data...
Loading historical data...
Loading historical data...
Other satellites on launch #63 in the year 1968 (1968-08-06 UTC)

Documentation

Showing up to 5 results
|